Snowfall_Accumulation
1.1 3.7 7.0 3.6 2.7 3.6 4.2 5.1 4.2 1.8 0.7 1.6 2.0 2.1 1.8 1.1 1.0 1.2 0.8 0.5 0.5 0.6 0.2 0.1 0.0 0.0 0.0 0.0 0.0 0.0 0.0 0.0 0.0 0.0 0.0 0.0 0.0 0.0 0.0 0.1 0.1 0.3 0.4 0.7
4.7 6.2 1.8 0.6 1.3 3.0 4.5 5.9 4.1 1.8 0.9 1.8 2.3 2.3 1.7 1.2 1.3 1.3 0.9 1.0 0.9 0.7 0.7 0.5 0.2 0.1 0.0 0.0 0.0 0.0 0.0 0.0 0.0 0.0 0.0 0.0 0.0 0.0 0.0 0.0 0.1 0.2 0.4 0.8
6.6 2.8 0.8 2.1 3.3 5.1 5.2 5.1 4.0 4.0 2.0 1.8 3.3 3.5 1.8 1.2 1.2 1.2 0.9 0.9 0.9 0.8 0.7 0.7 0.3 0.2 0.1 0.1 0.0 0.0 0.0 0.0 0.0 0.0 0.0 0.0 0.0 0.0 0.0 0.0 0.0 0.1 0.2 0.8
3.8 0.9 1.0 2.8 3.6 4.8 5.8 1.9 2.7 3.9 5.7 6.5 5.4 8.5 2.6 1.8 1.4 1.3 1.3 1.2 0.9 0.6 0.6 0.5 0.6 0.4 0.3 0.2 0.1 0.0 0.1 0.0 0.0 0.0 0.0 0.0 0.0 0.0 0.0 0.0 0.0 0.1 0.1 0.7
4.6 1.1 1.6 3.8 2.5 2.8 4.2 1.4 2.2 4.3 7.2 8.1 4.5 8.3 3.8 1.6 2.0 1.8 1.5 1.6 0.8 0.8 1.2 1.0 1.0 1.0 0.5 0.6 0.2 0.1 0.1 0.1 0.1 0.0 0.0 0.0 0.0 0.0 0.0 0.0 0.0 0.1 0.1 0.2
2.4 0.8 1.3 1.9 0.7 1.2 1.9 2.1 2.9 4.8 9.6 16.1 4.8 6.5 5.6 4.2 4.4 2.7 1.5 1.6 1.2 0.9 1.2 1.3 1.1 1.3 0.9 0.7 0.7 0.3 0.2 0.2 0.1 0.1 0.1 0.2 0.2 0.2 0.1 0.1 0.0 0.1 0.1 0.2
6.4 3.0 1.6 1.2 3.0 2.8 4.2 11.4 23.6 24.6 22.7 12.0 2.5 4.2 5.3 3.6 2.9 2.6 2.3 2.2 1.5 1.1 1.1 1.3 1.3 0.9 1.2 0.9 0.6 0.8 0.3 0.8 1.0 0.4 0.5 0.5 0.2 0.2 0.3 0.3 0.2 0.1 0.2 0.2
11.6 10.9 2.8 1.7 3.2 5.3 4.9 8.3 18.0 17.8 11.2 5.3 3.3 4.9 4.5 2.6 1.8 1.6 1.4 1.4 1.3 1.2 0.9 1.1 1.4 1.3 0.9 0.8 0.7 0.8 0.8 0.7 0.8 0.8 0.7 0.6 0.2 0.3 0.3 0.2 0.3 0.3 0.1 0.1
11.5 8.2 1.5 0.9 1.4 3.4 6.9 7.8 6.6 12.8 9.3 6.6 5.2 4.0 3.4 1.7 1.6 1.4 1.2 1.1 1.4 1.4 1.3 1.2 1.3 1.3 0.9 0.9 0.8 0.8 0.8 0.6 0.6 0.7 0.7 0.6 0.5 0.4 0.3 0.3 0.3 0.3 0.1 0.1
11.7 10.4 2.8 0.9 1.6 2.0 3.8 5.3 9.5 17.5 15.0 8.9 5.3 4.7 5.6 3.7 3.2 2.3 2.1 2.0 1.4 1.4 1.5 1.6 1.1 1.1 1.0 0.9 0.9 1.0 1.0 0.9 0.6 0.6 0.7 0.6 1.0 0.5 0.4 0.4 0.4 0.4 0.4 0.2
9.0 12.9 7.7 3.5 5.4 5.3 5.3 7.5 11.1 14.7 12.7 11.4 7.6 6.4 5.2 4.7 3.6 3.0 2.7 2.4 1.7 1.6 1.6 1.7 1.3 0.9 0.9 0.9 1.0 1.0 1.2 1.2 0.9 0.7 0.7 1.1 1.0 0.5 0.5 0.5 0.5 0.5 0.5 0.4
8.2 14.1 11.3 5.0 2.3 2.4 4.5 6.9 10.4 17.2 13.2 9.0 8.7 6.9 3.6 2.8 2.9 2.7 2.5 2.4 2.0 1.8 1.6 1.5 1.5 1.0 0.8 1.0 1.0 1.2 1.3 1.3 1.1 0.8 0.7 0.6 0.5 0.5 0.4 0.5 0.6 0.6 0.6 0.5
14.4 21.8 18.8 8.5 4.8 3.7 6.2 6.4 7.7 10.9 13.3 10.2 9.2 6.5 2.6 1.6 1.5 1.8 1.9 2.1 2.0 1.6 1.5 1.6 1.6 1.3 1.0 1.3 1.0 1.2 1.2 1.4 1.2 1.3 0.9 0.6 0.6 0.5 0.6 0.4 0.5 0.5 0.5 0.5
11.9 23.5 15.9 12.0 8.8 8.6 8.5 6.3 6.2 11.2 16.0 9.7 5.6 4.6 2.8 2.1 1.8 1.6 1.6 1.6 2.1 2.3 1.9 1.9 1.9 1.6 1.3 1.3 1.5 1.6 1.5 1.6 1.1 1.2 1.3 1.2 1.1 0.6 0.6 0.6 0.4 0.4 0.4 0.4
11.1 18.8 8.8 5.0 3.5 4.9 5.8 5.1 5.2 8.1 8.3 8.2 4.6 4.0 3.8 3.2 2.7 2.2 2.0 1.8 1.9 2.1 2.1 2.0 2.1 2.2 1.8 1.5 1.3 1.4 1.6 1.7 1.3 1.2 1.3 1.4 1.3 1.4 0.7 0.5 0.4 0.5 0.4 0.4
12.2 15.9 8.0 4.8 3.2 3.8 4.7 3.8 3.8 4.5 4.8 4.7 3.6 3.7 3.1 2.7 2.2 2.2 2.2 2.1 2.2 2.4 2.1 2.0 2.3 2.6 2.4 1.8 1.6 1.6 1.7 1.9 1.7 1.6 1.5 1.6 1.7 1.4 1.4 1.0 0.7 0.7 0.8 0.7
14.6 15.6 14.0 7.5 3.4 6.2 7.5 4.6 4.5 4.6 4.5 5.2 5.9 4.8 3.0 2.8 2.7 3.1 3.3 3.2 3.1 3.0 2.5 2.1 2.2 2.5 2.2 2.0 1.8 2.0 1.9 1.9 1.9 1.7 1.9 1.8 1.8 1.8 2.1 1.6 1.3 1.0 1.0 1.1
12.6 15.5 19.9 13.1 9.1 12.7 5.1 2.9 3.3 4.0 4.6 5.1 4.9 3.9 3.7 3.7 3.2 3.0 3.2 4.0 3.8 3.2 2.8 2.6 2.5 2.1 1.9 1.6 1.7 1.7 1.8 1.9 2.0 2.1 2.0 1.9 1.9 1.9 1.9 2.1 1.7 1.4 1.3 1.3
5.7 14.6 22.9 19.9 14.1 6.9 3.1 2.6 3.6 4.9 5.6 4.6 4.1 3.7 3.1 2.6 2.2 2.4 2.3 2.8 3.7 3.7 3.4 3.0 2.6 1.8 1.6 1.4 1.6 1.7 1.4 1.4 1.6 2.0 2.4 2.3 2.3 2.1 1.9 2.2 2.5 1.8 1.6 1.5
5.9 12.1 23.9 22.2 17.4 8.2 4.5 2.5 2.1 3.6 6.9 3.9 3.6 3.9 3.3 3.1 4.5 3.5 2.5 2.9 3.1 2.9 3.2 3.2 2.8 2.1 1.4 1.0 1.2 1.4 1.5 1.4 1.7 2.1 2.2 2.3 2.3 2.2 1.9 2.2 2.9 2.6 2.0 1.6
11.9 19.0 22.9 18.3 15.2 6.1 4.0 2.4 1.9 6.6 7.8 3.5 3.4 3.8 3.8 4.7 5.6 4.1 3.2 3.3 3.3 3.0 3.1 3.0 2.7 2.2 1.8 1.0 1.0 1.3 1.6 1.9 1.9 1.8 1.8 1.9 2.2 2.1 2.3 2.5 2.8 2.5 2.2 2.2
8.5 12.9 13.9 13.5 15.8 8.2 3.5 3.9 6.7 7.4 3.6 2.7 2.6 2.7 3.1 3.0 2.8 2.8 2.9 3.1 2.7 2.8 2.7 2.4 2.7 2.4 1.8 1.3 1.3 1.3 1.5 1.9 1.7 1.7 1.9 2.1 2.2 2.0 1.9 2.5 3.1 2.8 2.9 2.4
7.0 8.9 9.7 9.5 7.5 4.6 3.2 4.1 4.0 3.4 3.3 2.6 2.5 2.2 2.4 2.6 2.6 2.9 3.0 2.9 2.7 2.6 2.7 2.1 2.4 2.4 1.9 1.5 1.5 2.0 1.7 1.9 2.1 2.1 2.1 2.3 2.1 2.1 2.1 2.3 2.6 2.8 2.8 3.1
4.3 4.0 6.8 6.7 4.0 3.1 3.0 2.9 2.8 2.6 2.8 2.2 2.3 2.0 2.0 2.2 2.3 2.7 2.7 2.6 2.6 2.4 2.4 2.4 2.4 2.2 2.0 2.0 1.5 1.8 1.8 2.0 2.1 2.1 2.1 2.2 2.3 2.4 2.4 2.4 2.6 2.9 3.2 4.4
4.0 4.7 6.3 5.8 3.2 2.7 2.5 2.5 2.4 2.1 1.9 1.8 1.9 1.8 1.9 2.1 2.3 2.3 2.6 2.6 2.6 2.8 2.7 2.6 2.7 2.6 2.3 2.3 1.9 1.7 1.9 2.1 2.2 2.2 2.4 2.6 2.6 2.7 2.4 2.6 2.5 2.9 3.4 4.7
3.3 4.7 6.8 6.0 3.5 4.5 3.4 2.5 2.2 2.3 2.2 2.0 2.0 2.0 1.8 2.1 2.5 2.5 2.7 2.7 2.8 2.6 2.8 2.7 2.5 2.9 2.5 2.4 2.1 2.1 2.2 2.4 2.5 2.5 2.3 2.6 2.8 2.3 2.3 2.3 2.5 2.1 2.2 2.6